Location: Pisa
(43.7170°N, 10.3830°E)
Time: 07:17:48
(UTC+02:00)

ISS - Pass Details

Date: 15 May 2021
Orbit: 417 x 422 km, 51.6° (Epoch: 17 June)

Event Time Altitude Azimuth Distance (km) Brightness Sun altitude
Rises 05:16:12 0° 293° (WNW) 2,374 -0.3 -6.6°
Reaches altitude 10° 05:18:32 10° 280° (W) 1,507 -1.4 -6.2°
Maximum altitude 05:21:20 24° 224° (SW) 915 -2.6 -5.8°
Drops below altitude 10° 05:24:07 10° 168° (SSE) 1,500 -1.1 -5.4°
Sets 05:26:27 0° 154° (SSE) 2,360 0.0 -5.0°
